Location: Bad Salzschlirf
(50.3750°N, 9.3000°E)
Time: 05:20:35
(UTC+02:00)

ISS - Pass Details

Date: 01 April 2020
Orbit: 417 x 423 km, 51.6° (Epoch: 29 March)

Event Time Altitude Azimuth Distance (km) Brightness Sun altitude
Rises 20:57:03 0° 286° (WNW) 2,362 2.3 -10.3°
Reaches altitude 10° 20:59:10 10° 283° (WNW) 1,497 0.6 -10.6°
Maximum altitude 21:02:29 58° 203° (SSW) 491 -3.4 -11.1°
Enters shadow 21:04:47 18° 128° (SE) 1,104 -2.2 -11.4°
